Dewpoint
52 46 44 43 36 39 39 39 40 39 36 32 31 32 32 30 35 37 32 36 43 44 46 48 50 51 52 52 52 52 53 53 55 59 62 64 66 66 68 68 68 67 66 65 64 63 61 62 62
51 43 46 40 32 33 36 38 38 35 33 32 30 30 28 30 33 29 25 30 38 39 44 46 49 50 51 51 51 51 52 52 53 54 59 62 64 65 66 68 68 68 67 66 64 63 62 62 62
40 43 38 36 29 30 34 37 34 35 35 34 29 28 28 31 30 28 26 27 30 34 41 44 47 49 50 50 50 50 50 50 50 52 54 59 61 64 65 66 68 68 67 66 65 64 63 62 62
37 40 37 26 29 27 36 34 35 34 34 30 29 27 27 31 32 27 26 27 27 30 35 42 43 46 47 47 48 48 48 48 48 49 52 54 58 61 63 64 66 67 68 67 66 65 63 62 62
40 38 32 23 23 33 34 34 35 34 32 29 28 26 27 28 26 25 26 27 27 29 31 36 41 43 45 46 47 47 47 47 46 47 49 52 54 58 60 62 64 65 67 67 67 66 64 62 61
31 34 31 24 29 33 34 35 32 31 30 26 26 26 27 28 26 28 29 28 29 30 32 33 39 40 42 44 45 45 45 46 45 45 46 49 52 54 57 59 62 63 65 66 67 66 66 64 61
29 28 26 22 27 30 33 34 30 29 28 26 25 22 29 28 29 30 30 30 31 31 31 32 35 37 39 43 44 44 43 44 45 44 44 45 47 50 53 56 58 61 62 64 65 67 65 66 63
31 24 19 23 26 25 31 22 24 27 25 22 22 21 23 30 30 30 30 29 30 31 32 32 33 34 35 39 42 42 41 42 44 44 43 43 44 44 48 50 54 56 58 60 62 63 64 65 65
33 24 18 20 21 23 26 18 11 22 22 19 20 22 26 32 31 29 29 30 30 30 30 32 32 33 34 38 40 40 39 39 41 41 42 40 41 42 42 47 49 52 52 55 58 61 61 61 61
24 23 22 20 21 25 23 17 12 18 18 18 22 31 32 31 30 29 29 29 30 27 28 30 31 33 35 37 37 37 37 36 36 37 38 39 39 42 41 43 44 46 47 49 52 55 58 59 59
27 18 22 20 24 24 20 16 12 14 16 15 17 29 31 31 31 30 30 31 29 27 29 29 30 32 35 37 36 36 36 35 35 36 37 37 38 38 39 40 40 41 42 44 46 50 54 57 59
17 21 22 18 21 24 19 17 13 13 11 11 15 30 31 30 30 30 30 31 28 28 27 29 29 30 35 36 35 35 35 35 34 35 36 36 36 37 37 38 38 39 41 43 46 49 52 56 58
12 18 17 18 18 19 17 15 14 13 10 15 21 31 31 31 30 31 30 31 29 28 28 28 29 30 33 34 33 34 34 34 34 34 35 35 35 36 36 36 37 38 40 43 46 48 50 54 56
17 17 17 17 16 16 15 14 13 13 14 19 26 30 31 31 31 31 29 28 28 29 27 28 28 29 31 31 32 33 33 33 34 34 34 35 35 35 35 36 36 37 39 43 46 47 48 51 54
17 12 14 15 16 16 15 16 15 13 17 18 24 29 31 32 31 30 29 26 27 28 28 27 27 29 30 29 31 32 33 33 33 33 34 34 35 34 34 35 35 37 39 43 45 46 48 51 53
13 12 2 13 15 15 15 3 15 13 15 16 21 25 29 30 30 30 29 26 26 28 27 27 27 28 29 28 30 30 32 32 32 32 32 33 34 33 33 34 35 37 39 42 44 45 47 49 53
11 -2 7 9 15 10 13 5 14 12 9 11 16 20 24 26 29 30 29 26 26 27 27 26 26 27 28 28 29 30 31 31 30 30 30 31 33 33 33 33 34 36 39 40 42 45 45 48 53
-1 5 14 8 11 12 8 9 12 11 9 9 9 12 17 22 24 28 29 27 26 27 26 25 26 27 28 28 29 29 30 29 29 28 29 30 31 32 32 33 34 35 37 39 41 44 45 47 52
5 10 13 16 13 11 10 5 5 12 11 9 9 9 10 16 21 25 28 27 25 26 25 23 25 27 28 27 26 26 25 27 26 26 28 28 29 30 31 32 33 34 35 37 39 41 44 46 46
12 13 12 12 13 10 10 7 10 11 15 14 12 11 10 10 16 22 26 26 25 24 24 22 24 27 27 27 28 28 26 26 25 25 26 28 28 29 30 31 32 33 34 36 38 40 42 42 43
17 13 12 11 12 12 10 9 9 12 14 16 17 16 15 12 11 19 25 26 24 23 23 23 24 26 27 27 28 26 25 25 24 22 23 25 27 29 29 30 31 32 33 34 36 38 41 42 42
9 17 16 12 11 8 13 4 10 16 12 16 15 16 17 16 14 17 23 26 24 23 24 24 24 25 27 28 26 23 18 15 20 21 22 23 25 27 28 29 30 31 32 33 34 36 39 40 41
12 18 15 15 17 16 16 9 10 17 16 13 13 17 18 19 16 16 22 25 25 24 23 24 24 25 25 28 26 23 19 21 24 22 19 20 23 25 27 27 28 29 31 31 33 35 37 38 39
22 23 22 22 16 8 13 12 10 12 13 14 16 17 18 20 19 18 23 25 26 24 24 24 23 23 24 27 27 24 19 20 21 19 17 19 20 22 24 25 26 28 29 30 32 33 34 35 36
21 12 6 4 5 4 17 14 10 13 18 17 15 19 21 22 22 20 22 25 26 25 24 24 24 23 24 25 26 25 22 22 19 18 17 19 19 19 20 21 23 26 28 29 31 31 31 32 33
17 15 3 -6 -1 3 18 8 9 18 20 22 25 26 27 25 25 23 24 26 27 26 25 23 23 23 23 24 25 25 23 23 20 19 20 20 18 17 19 19 20 24 26 27 29 29 30 31 32
16 13 19 14 16 13 13 14 18 17 17 21 25 25 25 28 27 26 25 27 28 28 26 25 24 23 23 23 24 24 24 22 21 20 21 20 19 18 18 18 18 21 24 26 27 27 27 28 30
17 19 14 16 4 2 4 9 7 13 11 16 20 24 24 26 29 28 26 27 29 29 28 27 25 23 23 23 23 23 24 23 22 21 21 20 20 18 18 18 17 18 22 23 24 25 26 25 27
15 16 16 16 12 -4 -7 -5 17 12 19 21 20 24 26 24 27 30 28 28 28 28 28 26 25 24 23 23 23 22 23 24 22 21 21 20 19 18 17 17 17 16 19 22 21 23 23 24 24
17 17 17 5 7 15 10 1 21 24 24 26 25 30 29 26 26 28 30 29 28 28 27 26 25 24 24 23 23 22 22 23 22 21 20 20 18 18 17 18 16 16 16 20 20 20 22 22 22
Wind_Speed
13 12 1 3 3 5 2 2 1 5 3 4 6 6 11 7 3 4 2 12 12 11 10 9 10 10 11 14 14 15 16 16 16 17 19 20 19 17 18 15 11 16 16 16 15 16 18 18 17
9 4 3 3 3 4 3 1 7 2 9 10 8 5 7 4 3 8 8 8 13 11 9 7 8 9 11 12 13 14 16 16 15 14 16 18 20 18 16 17 14 11 14 14 14 15 16 16 18
6 1 2 5 3 3 4 4 11 6 3 2 5 8 4 4 5 8 8 12 13 11 8 6 8 9 10 12 12 14 15 16 15 14 12 16 18 19 17 17 16 12 12 14 12 13 14 14 17
1 2 5 6 7 1 3 12 11 10 4 7 7 8 4 5 7 7 12 12 13 8 6 6 7 9 10 11 12 13 13 15 14 13 14 12 16 17 19 18 16 14 11 12 12 12 11 13 15
3 3 5 6 3 2 2 10 6 7 4 4 1 5 4 3 14 15 12 10 12 7 5 5 7 8 10 11 12 12 13 14 14 14 14 13 13 15 18 19 18 14 13 10 10 10 9 11 12
2 3 4 5 4 3 6 7 7 4 4 5 6 6 4 11 13 12 12 11 9 8 6 7 7 7 8 9 10 12 13 14 14 14 14 13 13 13 15 17 19 17 13 13 10 9 7 7 9
4 4 5 8 10 6 6 9 8 8 7 3 11 6 2 10 12 12 12 11 9 7 7 6 6 7 8 10 11 12 14 14 13 14 14 14 14 13 13 15 16 18 17 15 14 10 4 3 6
4 5 5 5 15 6 9 6 6 4 5 4 2 5 5 15 15 13 11 9 8 7 6 5 5 6 6 9 11 12 13 13 14 14 15 16 15 15 14 14 14 15 17 17 14 12 9 7 8
2 5 8 7 11 6 10 6 1 2 8 3 2 2 2 24 17 13 9 6 6 5 4 4 5 7 5 9 10 11 13 15 14 14 15 15 13 13 14 14 14 15 14 15 16 14 11 9 10
3 5 9 3 5 10 11 8 11 6 6 3 0 6 14 21 19 17 13 11 7 6 4 4 5 5 7 7 9 10 10 12 13 12 13 12 14 12 12 13 15 15 16 15 15 14 13 9 7
3 6 7 4 2 4 12 10 5 11 9 10 14 15 18 17 17 18 14 12 12 8 5 5 5 5 6 7 8 8 9 11 12 13 13 12 12 13 13 13 13 12 14 12 14 13 10 10 7
5 3 3 3 2 6 13 9 6 12 4 2 11 24 20 21 21 20 17 14 12 10 8 6 5 6 6 7 7 7 9 9 11 12 12 12 12 13 13 13 12 12 12 13 12 12 12 12 9
4 6 4 3 6 6 7 6 4 11 5 1 14 20 22 20 19 16 14 14 13 11 9 7 6 5 6 7 6 7 8 9 9 11 11 11 11 11 10 12 12 12 11 11 11 11 11 10 11
4 7 6 3 3 4 7 3 1 7 9 10 19 22 20 21 21 15 14 17 16 13 13 10 8 7 7 7 7 7 8 7 9 10 11 11 10 10 11 11 12 12 11 10 8 9 10 9 10
9 6 3 2 2 3 2 8 16 5 14 17 19 18 19 21 19 22 19 20 19 15 14 12 10 8 8 8 7 7 7 8 9 9 10 10 10 10 10 11 12 11 10 9 9 9 9 11 10
3 4 5 3 6 1 4 10 7 15 19 19 19 18 19 21 21 20 19 19 17 16 16 13 10 9 8 8 7 7 7 8 8 8 8 10 10 9 10 11 11 10 9 9 9 7 10 10 11
2 6 7 3 9 4 9 6 4 11 19 19 19 20 20 20 20 22 21 22 20 19 17 14 12 11 10 9 8 8 8 8 8 8 9 10 10 9 10 10 10 9 9 9 8 9 6 10 10
12 9 6 8 11 7 9 21 7 9 17 20 20 20 21 23 27 22 22 22 20 19 17 15 13 12 11 9 8 7 8 7 7 7 8 8 9 9 9 10 11 11 10 10 8 9 9 7 8
8 6 8 2 5 7 17 17 16 14 14 21 22 23 25 27 19 21 23 22 20 19 19 18 16 13 13 8 7 4 4 4 5 6 7 7 7 9 9 9 10 10 11 8 6 4 10 11 9
5 6 5 1 3 6 3 23 20 19 21 25 25 25 27 21 21 21 23 24 24 24 22 20 18 17 14 9 4 3 5 3 4 4 6 6 7 7 8 9 9 9 10 11 10 7 4 7 11
3 6 8 2 4 2 6 14 13 14 22 19 24 25 23 28 28 24 26 28 23 25 25 23 20 19 16 12 8 7 7 5 3 2 3 4 5 6 7 8 9 9 9 10 8 5 5 6 10
19 6 7 9 9 7 1 13 9 12 23 19 30 27 30 27 22 24 27 26 28 25 21 21 20 19 16 15 13 13 8 8 6 5 5 4 4 6 7 8 9 9 8 9 7 6 4 5 7
4 5 9 6 3 0 5 5 10 5 14 24 31 28 28 28 28 29 30 29 25 23 25 22 20 19 16 17 16 14 9 6 6 7 8 5 4 5 6 7 8 9 9 8 8 9 8 4 3
13 11 10 7 3 14 15 14 11 15 21 21 22 26 29 26 27 23 21 22 23 22 23 23 24 22 18 19 17 17 14 12 13 11 10 7 4 4 5 6 7 7 8 8 7 8 9 9 8
3 12 4 7 8 18 2 13 21 15 15 21 22 20 19 17 23 24 26 26 25 28 26 24 24 23 21 21 19 18 16 15 17 15 14 11 8 4 6 5 6 6 6 7 7 8 8 8 10
10 7 12 14 14 9 1 16 10 14 14 16 14 12 7 12 19 26 27 26 27 28 26 25 25 23 22 22 21 18 17 16 15 15 13 13 11 9 8 7 6 6 6 6 7 7 7 8 8
8 13 4 5 1 2 7 8 15 18 18 18 18 10 10 6 14 22 21 24 25 25 27 28 26 22 23 23 19 20 19 18 18 16 14 13 10 10 10 9 8 7 7 6 7 7 6 7 7
3 2 7 4 10 13 9 8 12 9 19 17 19 22 10 3 6 12 17 21 21 21 21 21 23 25 23 21 20 19 19 18 16 16 17 16 14 12 13 11 9 8 7 7 7 6 5 7 5
8 7 4 5 6 13 10 11 10 15 9 9 10 16 15 11 8 8 11 13 15 15 19 22 22 22 21 23 20 19 19 18 17 18 18 17 15 15 15 13 12 11 10 8 8 7 7 7 6
0 6 12 15 12 6 4 19 4 5 4 4 5 5 7 8 6 7 9 11 13 16 17 21 21 22 22 22 20 20 17 18 19 20 20 18 18 16 16 15 13 12 11 11 11 10 9 9 8
Wind_Direction
321 313 271 60 124 70 91 93 45 104 83 11 61 93 117 65 85 167 170 113 105 82 56 31 42 38 37 38 36 38 37 35 30 19 25 29 34 32 36 49 78 94 90 89 83 76 73 71 69
318 327 60 95 102 131 209 196 132 54 135 124 84 68 53 89 96 143 124 117 102 87 63 41 51 46 44 44 40 40 41 41 40 36 21 28 29 35 32 37 57 88 98 92 86 79 72 69 64
304 294 93 93 82 125 172 157 133 106 82 109 99 55 80 109 109 136 126 120 96 83 71 59 62 54 50 48 45 44 44 43 46 43 39 28 28 31 35 34 35 57 100 98 92 84 75 72 70
7 44 55 87 104 86 210 159 142 126 68 62 108 77 76 335 162 149 132 112 95 90 72 63 67 62 56 51 48 48 48 47 47 50 45 45 32 29 32 36 32 37 67 104 102 89 79 72 74
34 69 89 93 84 9 129 158 155 133 111 94 121 151 99 41 109 121 121 108 105 90 64 25 66 63 55 53 50 49 48 48 48 49 49 45 49 33 34 34 34 37 43 63 109 99 85 75 70
85 90 109 138 124 91 136 172 140 123 125 141 98 119 156 148 127 129 115 104 103 102 74 55 41 57 59 54 53 52 48 45 48 48 47 47 44 46 36 36 37 37 41 43 59 95 84 79 78
120 101 130 137 144 159 186 166 158 140 138 134 140 134 148 179 154 138 117 109 104 96 85 64 47 48 48 53 53 53 50 48 47 43 47 45 46 44 45 33 35 44 41 41 39 44 86 64 74
104 100 122 152 171 194 169 138 130 142 167 110 102 200 206 200 161 132 118 110 106 96 86 75 56 46 63 47 57 57 53 50 50 42 43 37 36 40 40 37 33 33 36 39 40 35 29 21 40
92 117 164 168 165 181 171 144 83 90 130 85 29 154 278 148 149 136 134 126 117 104 98 86 70 60 65 60 53 56 52 49 47 40 38 36 31 27 28 36 37 38 35 35 34 35 35 22 34
87 157 184 155 164 178 174 158 149 153 150 188 153 50 121 144 160 165 174 179 178 166 138 109 90 81 76 73 66 60 56 49 42 41 39 35 38 32 35 30 32 27 25 27 30 31 31 35 30
78 174 156 160 165 158 159 148 145 152 206 210 205 173 159 163 174 180 187 188 188 170 147 134 114 91 88 85 78 67 61 56 46 41 38 37 39 34 34 31 23 21 15 17 19 26 29 32 44
122 88 123 140 307 164 171 146 180 185 210 223 199 168 169 177 185 190 191 188 178 171 161 152 136 114 104 92 77 71 66 57 49 42 39 39 40 36 35 34 27 29 18 21 21 32 35 39 46
112 158 88 87 75 98 130 170 193 225 202 113 158 166 180 186 194 198 194 186 176 176 170 163 146 127 115 98 88 77 68 60 50 44 39 39 44 42 34 33 29 28 26 28 30 32 42 46 46
116 116 113 83 92 78 168 197 247 229 163 152 164 183 189 193 196 195 190 186 186 178 175 169 159 142 124 106 92 80 76 71 60 47 38 37 42 40 37 33 30 26 24 25 34 40 47 50 49
129 102 56 123 157 154 133 243 232 177 171 174 185 191 196 203 199 202 194 192 188 184 169 170 159 144 125 118 105 93 80 76 65 52 42 42 44 46 45 39 30 16 21 33 44 48 59 60 59
74 82 181 204 172 194 155 253 241 185 176 192 195 197 203 209 210 209 199 195 188 172 176 170 159 147 133 123 112 100 86 78 67 55 47 43 46 48 53 47 35 19 32 35 44 47 64 65 67
32 205 213 228 205 161 193 257 326 177 185 202 205 207 211 217 218 214 203 196 187 180 173 170 161 152 140 128 115 99 87 74 64 55 48 41 43 46 56 49 36 33 45 45 41 51 68 74 73
195 204 211 213 204 193 205 246 277 203 203 215 216 217 218 220 221 213 204 195 188 179 173 168 164 157 147 132 116 101 93 82 72 61 54 49 49 49 57 51 43 41 50 45 49 63 59 66 67
174 176 190 222 184 185 225 253 247 225 223 230 231 227 225 226 222 210 202 193 187 180 175 175 170 171 158 149 145 140 132 114 83 72 64 58 57 57 63 61 53 45 53 45 40 52 69 53 13
161 166 195 322 152 204 287 261 260 238 233 225 228 230 229 226 221 210 197 191 192 186 185 181 182 178 181 170 164 153 153 139 120 94 73 66 66 65 71 74 67 58 59 49 44 53 93 47 19
200 192 196 219 148 243 317 282 251 240 232 228 235 234 230 222 218 208 197 195 189 190 188 187 185 184 184 180 141 112 98 96 126 125 101 75 84 79 83 81 80 72 68 67 56 52 93 123 51
220 188 161 151 163 232 210 264 260 244 238 225 236 231 232 223 214 204 196 194 194 193 185 184 184 185 188 181 176 172 177 171 189 166 155 125 97 89 86 87 82 75 65 61 49 52 99 128 134
194 131 135 135 131 318 203 250 259 264 243 238 239 234 231 222 210 205 198 196 190 179 185 186 183 187 186 186 188 186 187 177 158 152 152 143 108 93 90 90 90 87 81 65 54 51 65 67 124
143 108 70 70 87 255 213 212 247 216 223 237 241 237 232 220 213 207 192 179 181 176 180 184 186 192 188 188 194 196 194 182 170 173 174 168 144 111 99 96 93 88 88 83 81 77 71 73 74
105 139 161 227 206 242 113 207 246 246 238 228 239 253 247 221 210 201 189 182 179 183 184 185 186 193 190 191 196 200 197 190 190 186 183 177 171 176 162 135 122 107 102 95 88 82 81 80 84
185 181 186 213 217 234 110 232 241 241 257 256 262 268 278 229 214 206 195 185 183 185 184 183 187 190 190 193 199 198 198 198 197 192 189 188 185 177 172 151 138 126 115 105 98 94 87 85 86
183 212 149 102 63 265 221 278 278 265 258 246 247 255 255 245 213 209 192 186 185 185 186 186 186 190 190 195 194 200 201 201 202 198 192 191 185 179 174 164 153 143 130 125 119 113 104 99 94
185 145 164 195 224 242 246 263 232 207 228 238 236 236 228 225 186 193 191 187 187 188 185 182 185 190 192 191 196 202 203 203 202 194 196 194 191 182 176 171 167 159 153 141 129 126 120 114 102
166 184 198 185 190 231 257 257 222 228 245 281 266 244 217 204 194 186 187 186 185 180 182 187 188 190 193 196 198 200 204 203 201 200 200 197 190 187 184 180 177 175 167 162 157 159 152 141 132
337 207 180 194 206 220 231 247 205 251 282 270 276 252 211 200 194 176 176 179 180 189 190 195 195 198 200 199 200 204 202 201 204 205 202 196 195 192 189 186 186 185 181 178 179 175 171 167 166